CST,Max TemperatureF,Mean TemperatureF,Min TemperatureF,Max Dew PointF,MeanDew PointF,Min DewpointF,Max Humidity, Mean Humidity, Min Humidity, Max Sea Level PressureIn, Mean Sea Level PressureIn, Min Sea Level PressureIn, Max VisibilityMiles, Mean VisibilityMiles, Min VisibilityMiles, Max Wind SpeedMPH, Mean Wind SpeedMPH, Max Gust SpeedMPH,PrecipitationIn, CloudCover, Events, WindDirDegrees
2013-11-1,46,40,35,36,25,19,87,57,37,30.12,30.03,29.81,10,10,10,32,18,51,0.00,2,Rain,285
2013-11-2,57,44,32,28,25,19,65,47,25,30.12,29.89,29.54,10,10,10,29,7,40,0.00,0,,144
2013-11-3,57,47,37,32,27,19,70,51,23,29.83,29.64,29.54,10,10,10,28,15,38,0.00,3,,279
2013-11-4,39,32,26,27,22,18,93,68,42,30.08,29.97,29.84,10,10,7,16,9,23,0.01,3,Snow,317
2013-11-5,32,26,21,27,24,14,100,87,68,30.12,30.08,30.04,10,7,1,10,6,,0.63,3,Snow,105
2013-11-6,42,32,23,32,23,14,87,62,48,30.29,30.12,30.02,10,10,10,23,10,32,0.00,3,Rain,276
2013-11-7,53,40,28,30,25,19,80,59,37,30.30,30.14,29.74,10,10,10,18,6,33,0.00,1,,242
2013-11-8,55,47,39,36,26,21,87,45,34,29.96,29.76,29.58,10,10,6,32,23,44,0.11,1,Rain,272
2013-11-9,44,35,26,28,25,21,86,60,49,30.27,30.17,29.96,10,10,10,20,11,24,0.00,3,,283
2013-11-10,55,40,26,32,28,21,100,64,36,30.23,30.13,30.08,10,9,0,17,5,,0.00,2,Fog-Snow,67
2013-11-11,24,19,14,25,16,12,100,92,80,30.57,30.45,30.24,10,8,0,12,7,,0.41,4,Fog-Snow,85
2013-11-12,55,34,14,28,21,12,93,57,21,30.55,30.38,30.18,10,10,10,10,4,,0.00,0,,188
2013-11-13,59,50,41,39,29,21,93,49,29,30.18,30.09,30.01,10,10,1,13,4,18,0.03,2,Rain,261
2013-11-14,48,42,32,39,27,23,93,59,37,30.07,29.93,29.76,10,10,7,22,10,30,0.02,1,Rain,260
2013-11-15,50,38,26,32,26,21,86,68,43,29.76,29.53,29.37,10,10,10,15,6,17,0.00,0,,238
2013-11-16,42,34,26,30,24,19,86,71,39,29.37,29.31,29.27,10,10,10,14,5,18,0.00,0,,249
2013-11-17,39,34,28,32,21,14,100,63,42,29.99,29.72,29.36,10,9,1,26,11,34,3.41,3,Snow,272
2013-11-18,51,37,23,27,18,14,68,50,27,30.02,29.97,29.83,10,10,9,12,4,,0.00,0,,178
2013-11-19,59,48,37,27,23,19,60,35,25,29.82,29.65,29.58,10,10,10,39,12,51,0.00,0,,242
2013-11-20,41,24,8,27,21,5,100,86,53,30.28,29.90,29.68,10,5,0,21,7,29,5.27,5,Fog-Rain-Snow,306
2013-11-21,17,11,5,5,3,-4,85,74,45,30.50,30.42,30.28,10,10,3,15,8,20,0.29,3,Snow,290
2013-11-22,32,20,8,9,0,-13,79,37,15,30.57,30.47,30.37,10,10,10,25,10,36,0.00,0,,264
2013-11-23,37,22,8,19,11,3,85,62,30,30.58,30.47,30.24,10,10,10,9,3,,0.00,0,,152
2013-11-24,55,44,32,28,15,7,52,37,24,30.23,30.03,29.93,10,10,10,14,5,18,0.00,1,,301
2013-11-25,37,34,32,23,17,10,69,52,33,30.29,30.21,30.10,10,10,10,20,10,25,0.00,3,,283
2013-11-26,35,26,17,18,16,10,93,65,41,30.40,30.30,30.13,10,10,10,15,9,21,0.00,3,,325
2013-11-27,53,38,24,23,20,14,80,53,21,30.18,30.03,29.94,10,10,10,25,7,31,0.00,0,,282
2013-11-28,32,26,19,23,19,14,100,78,60,30.22,30.15,30.03,10,10,0,10,5,,0.00,0,Fog,300
2013-11-29,55,38,21,23,20,18,86,47,25,30.06,30.02,29.99,10,10,10,20,6,25,0.00,0,,267
2013-11-30,50,41,32,27,23,18,70,55,40,30.14,30.09,30.04,10,10,10,14,4,22,0.00,2,,246